Wind_Speed
19 20 21 23 24 25 26 28 29 28 28 29 29 30 30 31 32 33 33 34 36 37 39 40 41 42 43 44 46 47 49 50 49 49 48 47 44 43 42 41 38 38 37 35
18 19 21 22 23 25 26 27 27 27 27 28 29 29 30 30 31 32 33 34 35 37 38 39 40 41 43 44 45 47 48 49 50 51 51 50 49 47 46 44 42 39 36 35
17 18 19 21 23 24 24 24 25 26 26 26 27 28 28 28 29 29 30 31 32 33 34 36 38 39 41 42 43 44 46 47 48 49 50 50 50 51 50 47 44 42 38 36
15 17 18 19 20 21 22 22 23 24 24 25 25 27 26 26 27 27 28 28 29 29 30 31 32 33 35 37 38 40 42 44 45 47 47 49 49 49 49 47 47 45 42 39
14 15 16 17 19 20 21 21 21 21 22 23 22 23 23 23 24 25 26 26 26 27 27 26 27 27 27 29 30 32 34 36 39 40 42 44 45 46 47 46 45 44 43 40
12 13 15 17 18 19 19 19 19 19 19 19 19 19 20 20 21 22 23 23 23 23 22 22 23 23 23 23 23 24 25 27 30 33 34 37 40 41 42 43 43 43 41 39
10 12 14 16 17 18 18 19 18 18 17 16 16 17 18 18 18 18 18 18 19 19 19 20 21 21 19 18 17 17 18 20 22 24 26 28 32 35 37 37 38 39 38 37
10 12 14 15 16 17 17 17 15 15 15 14 15 15 16 15 15 16 16 17 17 17 17 18 19 18 16 14 13 12 12 13 13 15 17 21 24 27 30 32 33 34 34 34
10 12 14 14 15 16 16 14 13 12 11 12 13 13 14 14 15 16 16 17 17 16 16 17 17 15 13 11 10 8 8 7 8 8 10 13 18 21 23 26 28 28 29 31
11 12 13 14 15 15 15 14 13 12 11 11 11 13 14 14 15 16 17 17 18 18 18 17 17 16 14 12 11 9 7 6 6 5 5 8 10 13 16 20 23 25 26 27
13 13 14 15 15 15 15 15 14 13 11 11 11 12 13 14 16 16 16 17 18 19 19 19 19 18 17 16 15 13 11 9 8 7 5 2 4 8 11 13 16 19 21 23
14 15 15 16 16 16 16 15 14 13 13 12 12 13 14 15 16 16 17 17 19 20 20 20 20 19 19 18 18 16 15 13 11 9 8 6 3 1 4 8 11 14 17 19
15 16 16 16 17 17 16 16 15 14 13 13 13 14 14 16 16 16 17 18 19 20 21 22 22 21 20 19 19 18 18 16 14 12 10 9 6 4 1 2 5 9 12 15
16 16 17 17 17 17 16 16 15 14 14 14 14 14 14 15 16 17 18 18 19 20 21 22 22 22 21 21 20 20 20 19 17 16 14 12 10 8 6 4 2 4 6 9
17 17 17 17 17 17 16 16 16 15 14 13 13 14 14 15 16 17 18 19 20 20 21 21 21 22 22 22 22 21 20 19 19 18 16 15 13 11 9 7 6 4 5 6
16 17 17 17 17 17 16 16 15 15 14 13 13 13 14 15 16 17 18 19 20 20 21 21 22 22 22 22 22 22 21 20 20 19 18 16 14 13 11 10 9 7 6 6
15 16 16 16 16 15 16 16 15 15 15 14 14 14 14 14 15 16 17 18 19 19 20 21 21 21 21 21 21 21 21 20 20 20 19 18 17 17 15 13 12 10 9 8
13 15 15 15 15 15 14 14 14 14 14 14 13 13 13 13 14 14 16 17 18 18 19 20 20 20 20 20 20 20 20 20 20 20 19 19 19 18 17 16 15 14 12 11
10 12 13 14 14 14 13 12 12 12 12 12 12 12 12 13 13 14 14 16 17 17 17 18 18 19 19 19 19 19 19 19 20 20 19 19 19 19 19 18 17 17 15 14
7 9 11 12 13 13 13 12 11 11 11 11 11 11 11 12 13 13 14 14 15 16 16 16 17 17 18 18 19 19 19 20 20 20 20 20 20 20 20 20 20 19 18 17
5 6 8 9 10 11 11 11 11 11 11 10 10 10 10 11 12 12 13 14 14 14 15 15 15 16 17 17 18 18 19 20 20 20 20 20 20 21 21 21 21 21 20 19
5 5 5 7 8 8 9 9 9 9 10 10 9 9 9 9 10 11 12 13 13 14 14 14 15 15 16 16 17 17 18 19 19 20 20 20 21 21 22 22 22 21 21 21
7 6 5 5 6 6 7 7 7 8 8 9 9 8 8 8 9 10 11 12 12 13 13 14 14 14 15 15 16 17 17 18 19 20 20 20 21 22 22 22 23 22 21 21
9 9 8 7 6 6 6 6 6 6 6 7 8 8 8 8 8 9 10 11 11 12 12 13 13 13 14 14 15 16 16 18 19 19 20 20 21 22 23 23 23 22 22 22
12 11 10 9 8 7 7 7 6 6 6 6 7 7 8 8 8 8 9 10 10 11 11 11 12 12 13 13 13 14 15 16 18 19 20 20 21 21 22 23 23 22 22 22
16 14 13 12 12 11 10 9 8 8 7 7 7 7 7 8 8 8 8 9 9 10 10 10 10 11 11 12 13 13 14 15 16 18 19 19 20 21 22 22 22 22 22 22
Wind_Direction
266 274 279 284 287 289 291 292 293 293 293 292 291 291 290 289 287 285 283 282 280 279 277 275 273 270 268 266 263 261 260 258 257 255 254 254 253 251 251 249 249 249 248 246
271 279 284 289 292 294 295 295 295 295 294 294 293 292 292 291 289 287 285 284 282 281 280 279 276 274 272 269 267 264 262 261 259 257 255 254 254 252 251 251 251 251 251 248
278 285 290 293 296 298 298 298 299 299 299 298 297 296 295 294 292 290 288 288 287 287 285 284 281 280 277 273 270 267 266 264 262 260 257 254 253 253 252 252 252 253 253 249
284 291 295 299 303 305 305 304 302 301 302 303 302 300 300 300 298 297 296 296 296 296 296 293 289 285 281 277 273 271 268 266 264 261 259 255 253 252 251 251 252 252 251 250
292 297 302 308 312 312 311 310 309 309 310 310 307 305 307 307 306 304 303 302 303 302 302 301 298 294 288 283 280 275 271 267 264 261 258 255 251 250 250 250 250 249 249 249
303 307 311 316 319 319 318 318 317 317 318 317 314 313 315 316 313 310 309 308 309 310 309 309 308 304 298 292 286 281 275 269 264 259 255 251 249 248 249 249 249 248 247 249
316 319 322 324 325 325 325 327 328 329 330 326 324 325 326 328 327 324 322 320 320 319 317 316 316 313 308 301 296 290 283 277 267 260 254 249 246 244 244 245 246 246 246 247
335 335 336 336 336 336 337 336 336 334 332 333 335 337 340 342 343 343 343 341 339 336 333 332 330 326 321 315 308 300 296 286 277 269 260 250 242 237 239 240 241 243 244 246
358 354 351 348 347 346 349 350 350 346 344 344 349 352 353 355 357 360 360 359 358 357 353 349 349 352 351 342 336 328 317 302 291 280 269 253 238 232 233 235 237 238 241 243
13 7 3 358 357 1 4 5 6 6 4 2 3 8 10 13 15 16 15 14 14 14 14 18 18 18 20 21 18 13 4 345 318 304 278 259 239 230 228 230 233 237 238 240
26 20 14 11 14 15 16 17 18 20 22 20 19 21 23 25 26 27 29 29 29 32 33 32 32 33 34 35 34 35 30 27 29 27 26 349 235 224 225 227 231 235 238 239
34 28 24 23 24 24 23 24 25 29 32 32 30 33 34 38 37 37 37 38 38 39 39 39 39 40 41 41 41 42 40 42 43 47 51 50 48 191 224 229 232 237 240 241
38 34 32 31 30 28 29 29 31 36 38 38 38 41 42 44 42 42 42 42 42 42 43 44 45 44 44 44 45 45 45 47 50 54 53 48 46 47 17 269 251 245 246 247
41 37 35 34 32 32 34 34 35 39 41 41 44 46 46 45 45 45 45 45 44 45 46 47 47 46 47 48 50 51 50 50 51 52 51 49 49 49 47 30 344 282 267 259
42 39 37 36 35 37 38 37 38 39 41 43 44 46 47 47 47 48 48 49 49 49 48 47 46 47 48 50 50 52 52 51 51 51 50 49 47 44 40 32 17 347 316 290
42 41 39 39 38 39 40 38 39 40 43 45 45 46 47 49 50 51 52 52 50 48 48 48 49 49 51 50 51 51 52 53 52 51 50 48 45 40 34 27 18 0 339 318
41 40 38 39 39 39 40 39 43 44 46 47 47 48 50 52 52 52 51 49 47 47 47 48 48 48 51 52 51 51 51 51 50 48 46 44 41 38 34 29 20 9 354 334
39 38 37 37 37 38 37 40 42 44 46 48 49 49 49 49 50 50 48 46 45 45 46 47 47 48 48 49 49 49 49 47 46 44 42 40 37 34 30 26 21 16 8 357
35 34 35 34 35 34 34 34 36 38 42 45 46 45 45 47 47 46 43 41 41 42 44 45 45 46 47 47 47 47 45 44 42 40 38 37 34 32 28 24 20 16 11 5
23 27 29 30 31 31 31 32 33 35 38 38 40 42 44 44 43 43 39 37 37 39 41 42 43 43 44 44 44 44 43 42 40 38 36 34 31 28 25 22 20 17 13 10
355 9 17 20 24 27 27 29 31 33 31 32 36 39 41 41 41 39 35 33 33 34 36 37 37 38 40 41 41 41 40 38 36 36 34 32 29 26 24 22 19 17 16 14
309 329 349 2 9 14 16 20 24 25 25 26 27 30 32 33 33 30 28 28 30 32 33 34 35 37 39 39 39 39 38 36 34 33 32 30 28 26 25 23 21 20 21 21
281 292 303 323 342 354 2 6 8 11 15 17 18 17 16 18 20 20 20 23 26 28 30 31 33 34 36 36 36 36 36 34 33 32 31 30 28 27 26 25 24 25 26 27
269 273 278 287 301 315 329 340 345 351 358 3 6 8 8 8 10 10 10 13 18 21 24 27 29 31 32 34 34 34 33 32 31 31 30 29 28 28 27 28 28 30 31 32
264 264 267 270 275 284 294 305 313 318 325 334 343 349 354 356 358 360 0 3 6 11 15 19 23 26 28 30 30 28 27 27 27 28 28 28 28 29 29 30 30 33 35 37
262 262 262 264 266 268 274 280 287 293 297 304 312 323 331 336 342 347 350 354 357 0 4 9 14 18 21 24 25 25 25 25 25 26 27 28 28 29 31 32 33 34 36 39
Height
5909 5909 5907 5905 5904 5901 5898 5895 5892 5889 5886 5883 5880 5877 5875 5872 5869 5867 5864 5862 5859 5857 5855 5853 5851 5849 5848 5847 5847 5847 5847 5847 5848 5849 5850 5851 5852 5854 5856 5857 5858 5860 5863 5865
5907 5905 5903 5901 5899 5896 5893 5890 5886 5883 5880 5877 5874 5871 5868 5865 5861 5858 5856 5853 5850 5847 5844 5842 5839 5838 5836 5835 5834 5834 5834 5835 5836 5837 5838 5839 5841 5844 5846 5848 5850 5852 5855 5857
5903 5902 5899 5897 5894 5891 5888 5885 5881 5878 5874 5871 5868 5864 5861 5857 5854 5851 5847 5844 5841 5838 5835 5832 5829 5826 5824 5822 5821 5821 5821 5821 5822 5824 5825 5827 5830 5832 5835 5838 5840 5843 5846 5849
5900 5898 5895 5893 5890 5887 5883 5880 5876 5872 5869 5865 5863 5858 5855 5851 5847 5843 5840 5836 5833 5830 5826 5822 5819 5816 5813 5810 5809 5808 5808 5808 5809 5810 5812 5815 5818 5821 5824 5827 5830 5834 5837 5841
5897 5894 5892 5889 5886 5883 5879 5875 5871 5868 5864 5861 5857 5854 5850 5846 5841 5837 5833 5830 5826 5822 5818 5814 5811 5807 5804 5801 5799 5797 5796 5796 5796 5797 5799 5802 5805 5809 5812 5816 5820 5824 5828 5832
5894 5892 5889 5886 5882 5879 5875 5871 5867 5863 5860 5857 5853 5850 5846 5841 5837 5833 5829 5825 5821 5817 5812 5808 5804 5800 5796 5793 5790 5788 5787 5786 5785 5786 5788 5790 5794 5798 5802 5806 5810 5814 5818 5822
5892 5889 5886 5883 5879 5875 5871 5868 5864 5860 5857 5854 5850 5846 5843 5838 5834 5829 5825 5821 5817 5812 5808 5803 5799 5794 5790 5787 5784 5782 5781 5779 5778 5778 5779 5781 5784 5788 5792 5797 5801 5805 5808 5812
5890 5887 5884 5880 5876 5872 5868 5865 5863 5859 5855 5851 5847 5844 5841 5836 5831 5827 5822 5818 5813 5809 5804 5800 5795 5790 5786 5783 5780 5778 5776 5775 5773 5772 5773 5774 5776 5780 5784 5789 5792 5796 5800 5804
5888 5885 5882 5878 5874 5870 5866 5863 5860 5857 5853 5850 5846 5843 5839 5835 5830 5826 5821 5817 5812 5807 5802 5798 5793 5788 5784 5781 5778 5776 5774 5772 5770 5769 5769 5770 5771 5774 5777 5781 5785 5789 5792 5796
5887 5884 5881 5877 5873 5869 5866 5862 5859 5855 5852 5849 5846 5843 5839 5834 5830 5826 5821 5817 5812 5807 5803 5798 5793 5789 5785 5782 5779 5776 5774 5771 5769 5768 5768 5768 5768 5770 5773 5776 5779 5783 5786 5789
5886 5884 5881 5877 5872 5869 5866 5862 5858 5855 5852 5850 5847 5846 5840 5836 5831 5827 5823 5819 5814 5809 5805 5800 5795 5791 5787 5784 5781 5778 5775 5773 5771 5769 5768 5768 5768 5769 5771 5773 5776 5778 5780 5782
5886 5884 5880 5877 5873 5869 5866 5862 5859 5857 5853 5850 5848 5848 5841 5837 5833 5829 5825 5821 5817 5812 5808 5803 5799 5795 5791 5788 5784 5781 5778 5775 5773 5772 5771 5770 5769 5770 5770 5771 5773 5774 5776 5777
5887 5884 5881 5878 5876 5871 5867 5863 5860 5857 5855 5852 5849 5849 5843 5839 5835 5831 5827 5823 5820 5816 5811 5807 5803 5799 5795 5792 5788 5785 5782 5779 5776 5775 5773 5772 5771 5771 5770 5771 5771 5771 5772 5773
5888 5885 5883 5880 5876 5872 5869 5865 5862 5859 5856 5854 5851 5849 5845 5841 5838 5834 5830 5827 5823 5819 5815 5811 5807 5804 5800 5796 5793 5789 5786 5783 5781 5778 5777 5775 5773 5772 5771 5771 5770 5770 5770 5770
5889 5886 5883 5880 5877 5874 5871 5867 5864 5861 5858 5856 5853 5850 5847 5844 5841 5837 5834 5830 5827 5823 5819 5816 5812 5808 5804 5801 5797 5794 5791 5788 5785 5783 5780 5778 5776 5775 5773 5772 5771 5770 5769 5768
5891 5888 5885 5882 5879 5876 5873 5870 5867 5864 5861 5858 5855 5853 5850 5847 5843 5840 5837 5834 5831 5827 5823 5820 5816 5812 5809 5805 5802 5799 5795 5793 5790 5787 5784 5782 5780 5777 5775 5773 5771 5769 5768 5766
5892 5890 5887 5884 5881 5879 5876 5873 5869 5866 5864 5861 5858 5856 5852 5849 5847 5844 5841 5838 5834 5831 5828 5824 5820 5817 5813 5810 5807 5804 5800 5797 5794 5791 5788 5785 5783 5780 5777 5774 5772 5769 5766 5764
5894 5891 5889 5886 5884 5881 5880 5875 5872 5869 5866 5863 5860 5858 5855 5852 5850 5847 5844 5841 5838 5835 5831 5828 5825 5821 5818 5814 5811 5808 5805 5802 5798 5795 5792 5788 5785 5782 5779 5776 5772 5769 5765 5762
5895 5893 5890 5888 5885 5883 5881 5877 5874 5872 5869 5866 5863 5860 5858 5855 5852 5850 5847 5844 5841 5838 5835 5832 5828 5825 5822 5819 5815 5812 5809 5805 5802 5798 5795 5791 5788 5784 5781 5777 5772 5769 5765 5761
5895 5893 5892 5889 5887 5885 5884 5880 5876 5875 5872 5869 5866 5863 5860 5858 5856 5854 5850 5847 5844 5841 5838 5835 5832 5829 5825 5822 5819 5816 5812 5809 5805 5802 5798 5794 5791 5787 5782 5778 5774 5769 5764 5760
5895 5893 5892 5889 5888 5886 5884 5880 5878 5877 5875 5871 5868 5866 5863 5861 5859 5856 5853 5850 5847 5844 5841 5838 5835 5832 5829 5825 5822 5819 5816 5812 5809 5805 5801 5797 5793 5789 5784 5780 5775 5770 5765 5760
5894 5892 5891 5890 5888 5888 5884 5881 5880 5878 5875 5872 5870 5867 5865 5863 5860 5858 5855 5852 5849 5846 5843 5840 5838 5835 5832 5828 5825 5822 5819 5815 5812 5808 5804 5800 5796 5791 5786 5781 5776 5771 5766 5761
5892 5891 5890 5889 5890 5886 5884 5882 5880 5878 5876 5873 5871 5869 5867 5864 5862 5859 5857 5854 5851 5849 5846 5843 5840 5837 5834 5831 5828 5825 5822 5818 5815 5811 5807 5803 5799 5794 5789 5784 5779 5774 5769 5764
5889 5888 5887 5886 5886 5884 5883 5881 5880 5878 5876 5874 5872 5870 5867 5865 5863 5861 5858 5856 5853 5850 5848 5845 5842 5839 5836 5834 5831 5828 5825 5821 5818 5814 5810 5806 5802 5797 5792 5787 5782 5777 5772 5768
5885 5885 5884 5883 5883 5882 5881 5880 5878 5877 5875 5873 5872 5870 5867 5865 5863 5861 5859 5856 5854 5852 5849 5846 5844 5841 5838 5836 5833 5830 5827 5824 5820 5817 5813 5809 5805 5800 5796 5791 5786 5782 5777 5773
5881 5881 5881 5880 5880 5879 5878 5877 5876 5875 5874 5872 5871 5869 5867 5865 5863 5861 5859 5857 5855 5852 5850 5847 5845 5843 5840 5837 5835 5832 5829 5826 5822 5819 5815 5812 5808 5804 5800 5795 5791 5786 5782 5778